Lake Charles, LA

8:36 PM CST on December 07, 2016 (GMT -0600)
Chennault International

Weather History for KCWF - December, 2012

Change the Weather History Date:

Tuesday, December 11, 2012

  Actual Average Record
Temperature  
Mean Temperature 44 °F -  
Max Temperature 53 °F 62 °F 82 °F (2007)
Min Temperature 35 °F 47 °F 32 °F (2006)
Degree Days  
Heating Degree Days 21    
Moisture  
Dew Point 31 °F    
Average Humidity 67    
Maximum Humidity 87    
Minimum Humidity 38    
Precipitation  
Precipitation 0.00 in - - ()
Sea Level Pressure  
Sea Level Pressure 30.13 in    
Wind  
Wind Speed 7 mph (North)    
Max Wind Speed 9 mph    
Max Gust Speed -    
Visibility 10 miles    
Events      
Averages and records for this station are not official NWS values.
T = Trace of Precipitation, MM = Missing Value Source: NWS Daily Summary

Daily Weather History Graph

Daily Weather History Graph

Search for Another Location

Airport or City:

Trip Planner

Search our weather history database for the weather conditions in past years. The results will help you decide how hot, cold, wet, or windy it might be!

Date:

Astronomy

Dec. 11, 2012 Rise Set
Actual Time 6:59 AM CST 5:13 PM CST
Civil Twilight 6:32 AM CST 5:39 PM CST
Nautical Twilight 6:02 AM CST 6:09 PM CST
Astronomical Twilight 5:33 AM CST 6:38 PM CST
Moon 4:58 AM CST (12/11) 3:49 PM CST (12/11)
Length of Visible Light 11h 06m
Length of Day
10h 13m
Waning Crescent, 4% of the Moon is Illuminated
Dec 11
Waning Crescent
Dec 13
New
Dec 19
First Quarter
Dec 28
Full
Jan 4
Last Quarter

Hourly Weather History & Observations

Time (CST) Temp. Windchill Dew Point Humidity Pressure Visibility Wind Dir Wind Speed Gust Speed Precip Events Conditions
12:15 AM 40.1 °F 34.1 °F 32.0 °F 73% 30.08 in 10.0 mi North 9.2 mph - N/A   Clear
12:35 AM 40.1 °F 34.1 °F 31.5 °F 71% 30.08 in 10.0 mi North 9.2 mph - N/A   Clear
12:55 AM 39.4 °F 34.5 °F 31.1 °F 72% 30.09 in 10.0 mi North 6.9 mph - N/A   Clear
1:15 AM 39.4 °F 33.8 °F 30.7 °F 71% 30.08 in 10.0 mi North 8.1 mph - N/A   Clear
1:35 AM 38.8 °F 33.8 °F 30.2 °F 71% 30.10 in 10.0 mi NNW 6.9 mph - N/A   Clear
1:55 AM 38.7 °F 34.3 °F 30.2 °F 72% 30.10 in 10.0 mi North 5.8 mph - N/A   Clear
2:15 AM 38.5 °F 35.0 °F 30.2 °F 72% 30.10 in 10.0 mi NNW 4.6 mph - N/A   Clear
2:35 AM 38.1 °F 33.7 °F 30.0 °F 73% 30.09 in 10.0 mi North 5.8 mph - N/A   Clear
2:55 AM 38.3 °F 33.2 °F 30.0 °F 72% 30.09 in 10.0 mi North 6.9 mph - N/A   Clear
3:15 AM 38.1 °F 34.6 °F 30.0 °F 73% 30.09 in 10.0 mi North 4.6 mph - N/A   Clear
3:35 AM 38.3 °F 34.8 °F 29.8 °F 72% 30.09 in 10.0 mi North 4.6 mph - N/A   Clear
3:55 AM 37.8 °F 34.2 °F 29.8 °F 73% 30.10 in 10.0 mi North 4.6 mph - N/A   Clear
4:15 AM 37.8 °F 34.2 °F 29.8 °F 73% 30.10 in 10.0 mi North 4.6 mph - N/A   Clear
4:35 AM 37.8 °F 33.3 °F 30.2 °F 74% 30.10 in 10.0 mi North 5.8 mph - N/A   Clear
4:55 AM 37.4 °F 32.8 °F 30.4 °F 76% 30.10 in 10.0 mi North 5.8 mph - N/A   Clear
5:15 AM 36.7 °F 32.0 °F 30.6 °F 78% 30.10 in 10.0 mi North 5.8 mph - N/A   Clear
5:35 AM 36.5 °F 32.7 °F 30.2 °F 78% 30.11 in 10.0 mi North 4.6 mph - N/A   Clear
5:55 AM 35.8 °F 31.9 °F 30.6 °F 81% 30.12 in 10.0 mi North 4.6 mph - N/A   Clear
6:00 AM 35.6 °F 29.9 °F 30.2 °F 81% 30.12 in 10.0 mi NNW 6.9 mph - N/A   Clear
6:50 AM 35.6 °F 29.9 °F 30.2 °F 81% 30.13 in 10.0 mi North 6.9 mph - N/A   Clear
7:45 AM 35.6 °F 29.9 °F 32.0 °F 87% 30.14 in 10.0 mi North 6.9 mph - N/A   Clear
8:50 AM 39.2 °F 35.9 °F 33.8 °F 81% 30.17 in 10.0 mi North 4.6 mph - N/A   Clear
9:50 AM 44.6 °F 39.7 °F 32.0 °F 61% 30.18 in 10.0 mi NE 9.2 mph - N/A   Clear
10:50 AM 46.4 °F 42.4 °F 32.0 °F 57% 30.17 in 10.0 mi North 8.1 mph - N/A   Clear
11:50 AM 48.2 °F - 30.2 °F 50% 30.12 in 10.0 mi North 6.9 mph - N/A   Clear
12:50 PM 51.8 °F - 28.4 °F 41% 30.11 in 10.0 mi North 6.9 mph - N/A   Clear
1:50 PM 51.8 °F - 28.4 °F 41% 30.11 in 10.0 mi NE 6.9 mph - N/A   Clear
2:50 PM 53.6 °F - 28.4 °F 38% 30.10 in 10.0 mi NNE 8.1 mph - N/A   Scattered Clouds
4:45 PM 51.8 °F - 26.6 °F 38% 30.12 in 10.0 mi ENE 4.6 mph - N/A   Scattered Clouds
5:45 PM 48.2 °F - 30.2 °F 50% 30.14 in 10.0 mi Calm Calm - N/A   Clear
6:50 PM 44.6 °F 42.2 °F 32.0 °F 61% 30.15 in 10.0 mi North 4.6 mph - N/A   Clear
7:50 PM 46.4 °F - 32.0 °F 57% 30.18 in 10.0 mi Calm Calm - N/A   Clear
8:50 PM 46.4 °F 44.3 °F 32.0 °F 57% 30.19 in 10.0 mi NNE 4.6 mph - N/A   Clear
9:50 PM 44.6 °F 40.7 °F 32.0 °F 61% 30.19 in 10.0 mi NNE 6.9 mph - N/A   Clear
10:15 PM 44.6 °F 40.7 °F 32.0 °F 61% 30.20 in 10.0 mi North 6.9 mph - N/A   Clear
10:35 PM 44.2 °F 41.8 °F 32.0 °F 62% 30.21 in 10.0 mi NNE 4.6 mph - N/A   Clear
10:55 PM 43.5 °F 40.1 °F 32.0 °F 64% 30.21 in 10.0 mi NNE 5.8 mph - N/A   Clear
11:15 PM 42.8 °F 38.6 °F 32.0 °F 66% 30.22 in 10.0 mi North 6.9 mph - N/A   Clear
11:35 PM 41.9 °F 39.0 °F 32.2 °F 68% 30.22 in 10.0 mi North 4.6 mph - N/A   Clear
11:55 PM 40.3 °F 37.1 °F 32.9 °F 75% 30.22 in 10.0 mi North 4.6 mph - N/A   Clear